Sigfox identifier Datetime Temperature Humidity SNR
00393817 2018-10-09 09:04:04 20.4 39 17.4
00393817 2018-10-09 06:49:52 20.4 39 17.4
00393817 2018-10-09 05:42:47 20.4 39 17.4
00393817 2018-10-09 04:35:43 20.4 39 17.3
00393817 2018-10-09 01:14:19 20.2 39 17.3
00393817 2018-10-09 00:07:12 20.2 39 17.3
00393817 2018-10-08 21:52:55 20.2 39 17.3
00393817 2018-10-08 19:38:38 20.2 39 17.3
00393817 2018-10-08 18:31:32 20.2 39 17.2
00393817 2018-10-08 17:24:24 20.1 39 17.2
00393817 2018-10-08 16:17:18 20 39 17.2
00393817 2018-10-08 15:10:14 20 39 17.1
00393817 2018-10-08 14:03:10 20 39 17
00393817 2018-10-08 11:48:56 20 39 17
00393817 2018-10-08 09:34:39 20.1 39 16.9
00393817 2018-10-08 08:27:31 20.2 39 16.8
00393817 2018-10-08 07:20:24 20.2 39 16.9
00393817 2018-10-08 06:13:14 20.2 39 16.8
00393817 2018-10-08 05:06:10 20.2 39 16.8
00393817 2018-10-08 03:59:01 20.2 39 16.8
00393817 2018-10-08 02:51:56 20.2 39 16.8
00393817 2018-10-08 01:44:46 20.2 39 16.7
00393817 2018-10-08 00:37:40 20.2 39 8.7
00393817 2018-10-07 23:30:37 20.2 39 9
00393817 2018-10-07 22:23:28 20.2 39 9
00393817 2018-10-07 21:16:18 20.3 39 9.2
00393817 2018-10-07 20:09:15 20.4 39 9.3
00393817 2018-10-07 19:02:05 20.4 39 9.3
00393817 2018-10-07 17:54:53 20.4 39 9.4
00393817 2018-10-07 15:40:37 20.4 39 9.6
00393817 2018-10-07 14:33:32 20.4 39 9.7
00393817 2018-10-07 13:26:27 20.4 39 9.7
00393817 2018-10-07 10:05:03 20.5 39 9.8
00393817 2018-10-07 08:57:59 20.6 39 9.8
00393817 2018-10-07 06:43:42 20.6 39 9.8
00393817 2018-10-07 05:36:34 20.6 39 9.8
00393817 2018-10-07 02:15:13 20.6 39 9.9
00393817 2018-10-07 01:08:05 20.6 39 10.2
00393817 2018-10-07 00:00:58 20.6 39 10.2
00393817 2018-10-06 22:53:53 20.6 39 10.2
00393817 2018-10-06 21:46:45 20.6 39 10.4
00393817 2018-10-06 20:39:38 20.6 39 10.9
00393817 2018-10-06 19:32:29 20.7 39 10.8
00393817 2018-10-06 18:25:20 20.7 39 10.9
00393817 2018-10-06 17:18:13 20.7 39 11.2
00393817 2018-10-06 16:11:07 20.8 39 11
00393817 2018-10-06 15:04:02 20.8 39 11.1
00393817 2018-10-06 12:49:51 20.8 39 11.7
00393817 2018-10-06 11:42:45 20.8 39 11.6
00393817 2018-10-06 10:35:40 20.8 39 12
00393817 2018-10-06 09:28:37 20.8 39 11.9
00393817 2018-10-06 08:21:34 20.8 39 11.8
00393817 2018-10-06 07:14:30 20.8 39 11.9
00393817 2018-10-06 06:07:25 20.8 39 17.4
00393817 2018-10-06 05:00:24 20.8 39 17.4
00393817 2018-10-06 03:53:18 20.8 38 17.4
00393817 2018-10-06 02:46:12 20.8 38 17.3
00393817 2018-10-06 01:39:04 20.8 38 17.3
00393817 2018-10-06 00:31:59 20.8 38 17.4
00393817 2018-10-05 23:24:48 20.8 38 17.5
00393817 2018-10-05 21:10:41 20.8 38 17.5
00393817 2018-10-05 20:03:38 20.7 38 17.5
00393817 2018-10-05 18:56:30 20.7 38 17.4
00393817 2018-10-05 17:49:26 20.6 38 17.5
00393817 2018-10-05 16:42:24 20.6 37 17.5
00393817 2018-10-05 14:28:13 20.6 37 17.4
00393817 2018-10-05 13:21:09 20.6 37 17.3
00393817 2018-10-05 12:14:02 20.6 37 17.4
00393817 2018-10-05 11:06:58 20.5 36 17.4
00393817 2018-10-05 08:52:42 20.5 34 17.4
00393817 2018-10-05 07:45:42 20.5 34 17.6
00393817 2018-10-05 06:38:35 20.4 34 17.6
00393817 2018-10-05 05:31:28 20.5 34 17.4
00393817 2018-10-05 04:24:17 20.6 34 17.4
00393817 2018-10-05 03:17:15 20.6 34 19.7
00393817 2018-10-05 02:10:10 20.6 34 19.7
00393817 2018-10-05 01:03:00 20.6 35 19.7
00393817 2018-10-04 23:55:58 20.6 34 20.9
00393817 2018-10-04 22:48:48 20.6 34 19.2
00393817 2018-10-04 21:41:42 20.5 34 19.2
00393817 2018-10-04 20:34:36 20.5 34 19.3
00393817 2018-10-04 19:27:31 20.4 34 19.3
00393817 2018-10-04 18:20:25 20.4 34 19.3
00393817 2018-10-04 17:13:22 20.4 35 19.2
00393817 2018-10-04 16:06:11 20.4 35 19.2
00393817 2018-10-04 13:51:54 20.2 38 19.2
00393817 2018-10-04 12:44:52 20.2 39 19.3
00393817 2018-10-04 11:37:46 20.2 40 19.3
00393817 2018-10-04 09:23:30 20.2 41 19.3
00393817 2018-10-04 08:16:27 20.2 41 19.3
00393817 2018-10-04 07:09:13 20.2 41 19.4
00393817 2018-10-04 06:02:11 20.2 42 19.4
00393817 2018-10-04 04:54:59 20.2 42 19.3
00393817 2018-10-04 03:47:47 20.2 42 19.3
00393817 2018-10-04 02:40:39 20.2 42 19.3
00393817 2018-10-04 01:33:30 20.2 43 19.3
00393817 2018-10-04 00:26:24 20.3 43 19.3
00393817 2018-10-03 23:19:15 20.4 43 19.4
00393817 2018-10-03 22:12:12 20.4 43 19.4
00393817 2018-10-03 21:05:01 20.4 43 17
00393817 2018-10-03 19:57:55 20.4 43 17.1
00393817 2018-10-03 17:43:37 20.4 44 17.3
00393817 2018-10-03 16:36:29 20.4 44 13.2
00393817 2018-10-03 15:29:22 20.4 44 13.2
00393817 2018-10-03 14:22:15 20.4 43 13.3
00393817 2018-10-03 13:15:05 20.4 42 13.2
00393817 2018-10-03 12:07:54 20.4 42 13.3
00393817 2018-10-03 11:00:48 20.3 42 13.5
00393817 2018-10-03 08:46:31 20.2 42 13.6
00393817 2018-10-03 07:39:18 20.2 42 13.8
00393817 2018-10-03 06:32:09 20.2 42 14
00393817 2018-10-03 05:24:58 20.2 42 13.8
00393817 2018-10-03 04:17:50 20.2 43 13.4
00393817 2018-10-03 03:10:41 20.2 43 13.7
00393817 2018-10-03 02:03:32 20.2 43 13.9
00393817 2018-10-03 00:56:24 20.2 43 14
00393817 2018-10-02 23:49:15 20.3 43 14.2
00393817 2018-10-02 22:42:06 20.3 43 14.8
00393817 2018-10-02 21:34:57 20.4 43 15.2
00393817 2018-10-02 20:27:45 20.4 43 15.1
00393817 2018-10-02 19:20:36 20.4 43 14.7
00393817 2018-10-02 18:13:23 20.5 44 15.6
00393817 2018-10-02 17:06:10 20.6 44 8.6
00393817 2018-10-02 15:58:55 19.5 52 0